| time (UTC) | temp F | wind direction | speed MPH | gust MPH | rain 1hr in | rain 24hr in | rain mn in | humidity % | barometer mb |
| 20260509011809 | 74 | 92 | 2.0 | 7.0 | 0.00 | 0.00 | 0.00 | 50 | 1023.0 |
| 20260509005550 | 75 | 68 | 2.0 | 6.0 | 0.00 | 0.00 | 0.00 | 53 | 1023.2 |
| 20260509004028 | 74 | 194 | 2.0 | 9.0 | 0.00 | 0.00 | 0.00 | 54 | 1023.1 |
| 20260509001022 | 72 | 207 | 3.0 | 8.0 | 0.00 | 0.00 | 0.00 | 55 | 1023.2 |
| 20260508235508 | 70 | 264 | 1.0 | 5.0 | 0.00 | 0.00 | 0.00 | 59 | 1023.1 |
| 20260508233956 | 67 | 30 | 2.0 | 4.0 | 0.00 | 0.00 | 0.00 | 69 | 1023.1 |
| 20260508232502 | 64 | 11 | 0.0 | 2.0 | 0.00 | 0.00 | 0.00 | 73 | 1022.9 |
| 20260508231000 | 62 | 309 | 1.0 | 2.0 | 0.00 | 0.00 | 0.00 | 76 | 1023.1 |
| 20260508225455 | 60 | 11 | 0.0 | 2.0 | 0.00 | 0.00 | 0.00 | 77 | 1022.8 |
| 20260508224657 | 59 | 294 | 0.0 | 0.0 | 0.00 | 0.00 | 0.00 | 78 | 1022.7 |
| 20260508222453 | 56 | 294 | 0.0 | 0.0 | 0.00 | 0.00 | 0.00 | 83 | 1022.9 |
| 20260508215501 | 51 | 294 | 0.0 | 0.0 | 0.00 | 0.00 | 0.00 | 90 | 1022.5 |
| 20260508213948 | 50 | 294 | 0.0 | 0.0 | 0.00 | 0.00 | 0.00 | 91 | 1022.2 |
| 20260508212450 | 49 | 294 | 0.0 | 1.0 | 0.00 | 0.00 | 0.00 | 91 | 1022.0 |
| 20260508211623 | 48 | 294 | 0.0 | 0.0 | 0.00 | 0.00 | 0.00 | 91 | 1021.8 |
| 20260508205423 | 47 | 294 | 0.0 | 0.0 | 0.00 | 0.00 | 0.00 | 89 | 1021.7 |
| 20260508203914 | 47 | 294 | 0.0 | 1.0 | 0.00 | 0.00 | 0.00 | 89 | 1021.7 |
| 20260508202423 | 47 | 294 | 0.0 | 0.0 | 0.00 | 0.00 | 0.00 | 89 | 1021.4 |
| 20260508201634 | 47 | 294 | 0.0 | 1.0 | 0.00 | 0.00 | 0.00 | 89 | 1021.2 |
| 20260508194547 | 47 | 182 | 0.0 | 1.0 | 0.00 | 0.00 | 0.00 | 88 | 1020.7 |
| 20260508192349 | 47 | 182 | 0.0 | 0.0 | 0.00 | 0.00 | 0.00 | 88 | 1020.7 |
| 20260508185340 | 47 | 182 | 0.0 | 0.0 | 0.00 | 0.00 | 0.00 | 88 | 1020.6 |
| 20260508184530 | 47 | 182 | 0.0 | 0.0 | 0.00 | 0.00 | 0.00 | 88 | 1020.5 |
| 20260508182328 | 46 | 182 | 0.0 | 2.0 | 0.00 | 0.00 | 0.00 | 88 | 1020.4 |
| 20260508180751 | 46 | 182 | 0.0 | 0.0 | 0.00 | 0.00 | 0.00 | 87 | 1020.4 |
| 20260508173751 | 46 | 182 | 0.0 | 0.0 | 0.00 | 0.00 | 0.00 | 87 | 1020.5 |
| 20260508172230 | 46 | 182 | 0.0 | 0.0 | 0.00 | 0.00 | 0.00 | 86 | 1020.3 |
| 20260508171406 | 46 | 182 | 0.0 | 0.0 | 0.00 | 0.00 | 0.00 | 86 | 1020.1 |
| 20260508165209 | 46 | 182 | 0.0 | 0.0 | 0.00 | 0.00 | 0.00 | 86 | 1019.9 |
| 20260508163711 | 46 | 182 | 0.0 | 0.0 | 0.00 | 0.00 | 0.00 | 86 | 1020.0 |
| 20260508162220 | 46 | 182 | 0.0 | 0.0 | 0.00 | 0.00 | 0.00 | 85 | 1020.0 |
| 20260508160655 | 46 | 182 | 0.0 | 2.0 | 0.00 | 0.00 | 0.00 | 85 | 1020.2 |
| 20260508155146 | 47 | 182 | 0.0 | 0.0 | 0.00 | 0.00 | 0.00 | 85 | 1020.2 |
| 20260508153652 | 47 | 182 | 0.0 | 0.0 | 0.00 | 0.00 | 0.00 | 84 | 1019.9 |
| 20260508150629 | 47 | 182 | 0.0 | 1.0 | 0.00 | 0.00 | 0.00 | 84 | 1020.1 |
| 20260508145130 | 47 | 182 | 0.0 | 0.0 | 0.00 | 0.00 | 0.00 | 83 | 1020.1 |
| 20260508144338 | 47 | 182 | 0.0 | 1.0 | 0.00 | 0.00 | 0.00 | 83 | 1020.0 |
| 20260508142039 | 48 | 182 | 0.0 | 1.0 | 0.00 | 0.00 | 0.00 | 83 | 1020.0 |
| 20260508140544 | 48 | 182 | 0.0 | 0.0 | 0.00 | 0.00 | 0.00 | 81 | 1020.1 |
| 20260508135021 | 48 | 182 | 0.0 | 0.0 | 0.00 | 0.00 | 0.00 | 81 | 1019.8 |
| 20260508133516 | 49 | 182 | 0.0 | 0.0 | 0.00 | 0.00 | 0.00 | 80 | 1019.8 |
| 20260508132014 | 49 | 182 | 0.0 | 0.0 | 0.00 | 0.00 | 0.00 | 79 | 1019.6 |
| 20260508130522 | 49 | 182 | 0.0 | 2.0 | 0.00 | 0.00 | 0.00 | 78 | 1019.6 |
| 20260508125011 | 50 | 182 | 0.0 | 2.0 | 0.00 | 0.00 | 0.00 | 77 | 1019.5 |
| 20260508123518 | 50 | 182 | 0.0 | 2.0 | 0.00 | 0.00 | 0.00 | 75 | 1019.5 |
| 20260508122014 | 51 | 182 | 0.0 | 0.0 | 0.00 | 0.00 | 0.00 | 73 | 1019.6 |
| 20260508120502 | 51 | 182 | 0.0 | 0.0 | 0.00 | 0.00 | 0.00 | 72 | 1019.6 |
| 20260508114933 | 52 | 182 | 0.0 | 0.0 | 0.00 | 0.00 | 0.00 | 71 | 1019.7 |
| 20260508111923 | 52 | 182 | 0.0 | 0.0 | 0.00 | 0.00 | 0.00 | 72 | 1019.6 |
| 20260508111128 | 52 | 182 | 0.0 | 0.0 | 0.00 | 0.00 | 0.00 | 71 | 1019.3 |
| 20260508103411 | 53 | 182 | 0.0 | 2.0 | 0.00 | 0.00 | 0.00 | 69 | 1019.5 |
| 20260508101905 | 53 | 182 | 0.0 | 2.0 | 0.00 | 0.00 | 0.00 | 69 | 1019.1 |
| 20260508100339 | 53 | 182 | 0.0 | 2.0 | 0.00 | 0.00 | 0.00 | 68 | 1019.1 |
| 20260508093340 | 55 | 274 | 0.0 | 0.0 | 0.00 | 0.00 | 0.00 | 67 | 1018.8 |
| 20260508091825 | 56 | 274 | 0.0 | 0.0 | 0.00 | 0.00 | 0.00 | 66 | 1018.7 |
| 20260508090327 | 56 | 161 | 0.0 | 0.0 | 0.00 | 0.00 | 0.00 | 64 | 1018.5 |
| 20260508084817 | 57 | 161 | 0.0 | 2.0 | 0.00 | 0.00 | 0.00 | 64 | 1018.6 |
| 20260508083305 | 58 | 161 | 0.0 | 0.0 | 0.00 | 0.00 | 0.00 | 65 | 1018.2 |
| 20260508081816 | 58 | 161 | 0.0 | 0.0 | 0.00 | 0.00 | 0.00 | 63 | 1018.0 |
| 20260508080243 | 60 | 161 | 0.0 | 0.0 | 0.00 | 0.00 | 0.00 | 62 | 1017.7 |
| 20260508074732 | 61 | 161 | 0.0 | 0.0 | 0.00 | 0.00 | 0.00 | 58 | 1017.6 |
| 20260508073225 | 62 | 161 | 0.0 | 2.0 | 0.00 | 0.00 | 0.00 | 55 | 1017.6 |
| 20260508071722 | 64 | 161 | 0.0 | 1.0 | 0.00 | 0.00 | 0.00 | 52 | 1017.4 |
| 20260508070222 | 66 | 161 | 1.0 | 2.0 | 0.00 | 0.00 | 0.00 | 50 | 1017.1 |
| 20260508064721 | 67 | 256 | 0.0 | 0.0 | 0.00 | 0.00 | 0.00 | 53 | 1017.1 |
| 20260508063235 | 67 | 256 | 0.0 | 2.0 | 0.00 | 0.00 | 0.00 | 49 | 1016.9 |
| 20260508061651 | 69 | 256 | 0.0 | 2.0 | 0.00 | 0.00 | 0.00 | 39 | 1016.8 |
| 20260508060853 | 70 | 321 | 0.0 | 0.0 | 0.00 | 0.00 | 0.00 | 38 | 1016.8 |
| 20260508055406 | 71 | 321 | 0.0 | 2.0 | 0.00 | 0.00 | 0.00 | 35 | 1016.7 |
| 20260508053127 | 71 | 321 | 0.0 | 2.0 | 0.00 | 0.00 | 0.00 | 34 | 1016.9 |
| 20260508050132 | 73 | 263 | 1.0 | 6.0 | 0.00 | 0.00 | 0.00 | 27 | 1017.2 |
| 20260508045343 | 74 | 252 | 1.0 | 7.0 | 0.00 | 0.00 | 0.00 | 28 | 1017.2 |
| 20260508043055 | 75 | 237 | 2.0 | 6.0 | 0.00 | 0.00 | 0.00 | 27 | 1016.9 |
| 20260508041602 | 74 | 310 | 1.0 | 4.0 | 0.00 | 0.00 | 0.00 | 27 | 1017.1 |
| 20260508040035 | 73 | 38 | 1.0 | 4.0 | 0.00 | 0.00 | 0.00 | 25 | 1017.2 |
| 20260508034542 | 74 | 255 | 2.0 | 6.0 | 0.00 | 0.00 | 0.00 | 26 | 1017.4 |
| 20260508033038 | 74 | 283 | 2.0 | 8.0 | 0.00 | 0.00 | 0.00 | 24 | 1017.4 |
| 20260508031509 | 74 | 242 | 2.0 | 8.0 | 0.00 | 0.00 | 0.00 | 30 | 1017.7 |
| 20260508025957 | 73 | 319 | 2.0 | 8.0 | 0.00 | 0.00 | 0.00 | 26 | 1017.9 |
| 20260508024457 | 72 | 227 | 2.0 | 5.0 | 0.00 | 0.00 | 0.00 | 30 | 1017.8 |
| 20260508022958 | 72 | 225 | 3.0 | 8.0 | 0.00 | 0.00 | 0.00 | 24 | 1018.1 |
| 20260508021446 | 71 | 219 | 3.0 | 11.0 | 0.00 | 0.00 | 0.00 | 25 | 1018.6 |
| 20260508015943 | 69 | 74 | 3.0 | 8.0 | 0.00 | 0.00 | 0.00 | 25 | 1018.9 |
| 20260508014434 | 69 | 277 | 1.0 | 10.0 | 0.00 | 0.00 | 0.00 | 26 | 1019.1 |